Wind_Speed
34 33 30 28 30 29 26 22 28 28 35 39 31 29 27 24 25 28 23 17 16 13 13 11 10 6 5 4 1 2 6 6 4 4 5 6 6 6 6 5 5 5 4 6 7 8 10 11 12
35 35 32 32 30 26 21 21 33 31 40 31 30 32 31 32 32 26 24 19 15 15 16 15 12 9 8 7 6 2 2 3 3 3 3 4 4 3 3 4 3 2 3 4 5 7 9 10 10
39 36 36 34 31 26 16 24 21 42 36 34 32 32 40 44 28 31 27 26 22 17 16 14 13 10 10 8 6 5 3 2 2 3 3 4 3 2 2 2 2 0 2 3 4 6 7 8 9
42 37 38 38 35 29 18 20 26 35 35 36 34 33 38 39 35 33 32 31 28 26 23 19 18 15 14 13 11 8 4 3 4 6 6 6 5 4 4 4 4 3 2 2 4 4 5 6 6
45 44 41 39 35 23 35 27 32 26 34 35 33 38 44 37 36 36 35 34 33 31 30 26 22 19 19 16 15 15 14 9 8 8 9 9 8 8 6 6 6 7 6 7 6 5 5 6 7
49 47 46 40 36 37 41 42 38 33 35 35 30 41 46 36 36 36 37 39 37 36 34 32 29 25 23 21 19 18 19 17 15 12 11 10 10 10 9 9 8 9 9 8 9 8 8 8 8
52 51 47 43 34 36 42 36 37 33 33 37 43 33 43 42 36 36 35 35 38 39 39 38 35 32 29 27 25 24 24 24 22 18 15 13 11 10 10 11 12 12 13 12 12 13 13 11 11
52 53 50 47 45 28 36 44 38 39 38 44 41 31 31 39 33 33 32 33 31 36 41 42 40 37 36 34 32 29 29 26 26 24 20 19 20 17 16 14 15 15 15 14 15 15 14 13 13
44 50 54 51 46 45 45 42 38 45 43 41 37 38 45 37 34 33 31 29 31 33 32 36 41 42 41 39 36 34 32 31 29 26 23 19 20 20 18 16 16 17 17 17 17 16 16 15 15
41 42 42 43 46 54 49 47 42 49 45 43 43 40 43 41 41 39 37 35 36 36 33 32 36 37 39 39 39 36 36 35 33 28 25 23 22 21 21 19 18 18 19 19 19 19 18 18 18
35 39 38 41 48 49 49 52 52 55 50 45 45 44 43 42 41 38 37 37 40 41 38 33 35 37 40 40 36 38 36 36 34 32 29 27 27 26 24 23 22 22 23 23 22 22 20 21 21
30 33 37 40 45 44 43 45 49 49 48 47 48 48 45 45 43 42 41 41 42 44 42 40 36 39 37 41 41 42 39 37 36 36 35 33 31 29 29 28 27 25 26 28 27 27 26 25 24
28 28 31 33 37 39 41 45 46 47 48 48 43 45 46 45 45 45 45 45 44 45 46 43 40 42 46 48 48 46 46 43 41 42 38 39 37 37 36 35 33 32 32 32 32 31 29 29 29
28 28 28 31 34 36 36 37 42 42 45 44 44 44 44 46 46 46 47 48 48 49 52 48 48 48 48 48 49 49 47 46 45 45 44 44 41 42 45 46 41 39 38 39 37 36 34 33 33
27 28 29 30 32 33 33 31 33 35 41 41 40 41 42 43 44 46 47 49 52 52 52 54 51 52 51 47 50 53 52 51 50 51 53 50 51 49 49 50 49 45 45 46 42 40 40 39 38
28 28 28 28 33 31 30 28 32 37 36 35 38 41 42 43 44 43 46 50 51 50 50 50 51 53 53 56 58 58 57 58 57 55 53 56 56 54 52 55 51 50 46 55 49 45 45 42 41
27 27 28 28 32 32 33 33 35 38 33 39 40 41 42 43 44 45 46 47 50 50 49 51 52 53 53 54 55 56 58 59 58 57 55 49 50 56 56 55 55 58 58 54 51 51 53 44 44
15 21 24 25 28 29 31 31 32 34 34 36 38 39 40 42 43 46 48 49 50 51 51 51 52 53 54 54 54 54 53 53 53 52 53 56 52 48 39 40 45 54 53 49 49 51 56 56 48
26 23 24 27 32 32 32 33 33 33 32 31 34 36 37 39 42 44 46 48 50 52 53 54 55 55 55 57 56 55 52 52 49 47 47 48 48 48 46 48 53 56 46 51 59 56 57 60 58
24 25 24 27 29 31 30 30 32 33 30 32 34 34 37 39 42 45 46 47 48 50 52 54 56 57 58 58 58 57 57 57 54 52 49 50 48 44 45 49 52 53 54 55 58 58 65 66 62
23 25 26 29 31 32 31 35 37 35 36 38 38 40 43 46 46 47 49 51 53 54 54 55 58 58 60 59 60 60 62 63 62 58 54 51 49 46 46 49 47 48 48 49 54 59 64 57 55
26 28 32 30 33 34 33 39 36 37 41 42 42 47 50 49 51 52 55 58 61 61 60 60 58 61 61 62 63 64 63 63 62 62 59 58 55 57 56 54 53 50 47 51 52 56 54 46 50
27 34 32 32 34 36 34 39 32 30 35 36 47 45 45 47 52 55 55 57 59 59 62 62 62 62 66 67 66 66 66 63 63 64 62 60 56 57 58 55 56 54 48 49 49 47 43 43 48
31 33 33 33 33 36 29 27 20 17 31 44 39 42 45 47 52 54 57 59 61 62 64 65 65 65 66 70 71 71 70 66 64 64 64 61 58 56 63 57 55 54 54 51 49 48 50 50 49
32 31 30 24 20 21 17 27 26 36 48 45 44 47 50 52 54 56 61 62 68 67 65 64 65 64 69 73 71 73 71 69 65 64 63 61 62 62 62 61 64 57 58 54 58 56 53 51 54
28 28 24 26 22 24 33 39 29 44 44 49 51 52 52 56 59 58 56 57 52 52 54 57 64 65 67 70 71 69 71 67 66 64 68 69 70 66 65 67 69 58 59 63 60 58 57 60 60
32 35 34 34 33 34 28 24 19 37 46 48 48 54 52 46 47 47 47 47 46 48 51 53 54 52 47 48 49 53 59 63 62 63 67 73 72 66 61 62 66 58 59 64 66 68 67 65 61
31 33 32 29 31 29 13 19 18 26 35 42 46 49 41 39 40 43 41 42 42 46 45 50 48 47 46 46 45 51 53 56 57 61 65 62 78 63 71 72 54 54 53 55 58 59 57 56 58
30 28 29 30 32 31 27 17 26 40 45 42 39 37 35 38 37 39 37 38 34 32 39 40 46 53 50 45 45 47 51 54 55 57 62 61 76 70 46 65 50 50 49 50 52 52 54 52 50
25 24 26 29 26 29 30 29 30 37 31 31 32 32 35 35 34 33 36 34 35 39 35 36 37 40 47 50 49 45 47 55 57 65 66 46 32 35 43 48 51 51 50 49 50 50 50 50 48
Wind_Direction
219 216 216 213 214 218 218 216 214 238 235 233 231 227 225 216 204 216 240 238 235 232 236 226 235 213 144 125 196 202 179 175 183 167 156 150 145 123 109 97 86 83 61 51 52 66 60 48 42
216 216 214 214 213 214 219 214 236 235 236 235 230 228 233 239 230 226 231 238 239 230 235 234 231 210 164 155 146 157 130 162 182 199 217 204 195 157 145 123 110 73 52 46 57 64 58 54 39
214 213 213 214 213 206 239 206 221 233 240 238 236 230 230 232 228 235 235 241 243 234 230 229 234 227 208 203 228 210 209 200 226 244 249 259 245 236 249 210 208 220 16 36 39 41 55 48 34
219 214 214 217 209 201 239 221 214 224 232 237 236 240 239 236 235 237 238 244 246 244 237 244 250 242 233 224 235 246 258 293 309 295 284 276 263 240 239 240 250 266 278 318 334 360 4 5 12
222 219 219 216 214 200 222 201 219 222 225 229 232 242 244 240 239 237 239 245 249 249 245 250 247 249 245 238 236 247 244 258 283 297 296 292 280 272 261 255 253 260 272 283 290 311 326 330 336
226 224 223 223 220 215 228 228 236 233 232 227 223 233 246 239 242 241 241 247 251 250 249 253 252 250 255 252 249 254 261 257 271 277 278 282 283 278 273 261 254 257 262 268 281 287 297 310 319
226 228 227 227 228 233 236 231 231 232 233 230 229 230 243 238 241 244 244 243 247 253 255 257 259 256 255 255 254 256 263 269 270 272 275 272 267 273 275 265 259 253 261 266 277 284 291 297 302
227 230 229 228 231 231 250 233 231 232 239 238 236 234 250 230 238 241 246 249 249 250 250 256 259 259 259 258 257 256 258 262 269 270 272 272 266 274 287 279 265 261 261 266 272 274 278 285 292
227 230 229 230 234 239 239 240 246 241 236 244 245 242 244 246 247 245 246 249 247 245 249 252 256 258 260 263 260 264 262 263 266 270 273 272 269 272 280 285 280 276 270 272 273 271 274 281 286
230 234 235 235 238 241 238 248 248 257 248 248 247 247 252 251 249 248 250 256 256 258 256 260 253 251 256 258 260 258 261 264 267 264 266 270 268 263 273 280 278 277 277 273 270 271 273 276 280
228 233 236 238 239 243 245 244 250 256 257 260 260 255 255 258 257 257 260 260 257 256 254 258 252 253 250 255 252 252 251 257 254 263 259 256 267 261 264 268 273 270 271 269 266 268 267 268 271
224 228 233 238 244 243 245 247 248 253 257 256 257 261 259 259 260 258 254 253 251 252 258 254 256 249 256 255 259 248 246 245 251 256 257 253 253 254 259 253 259 258 258 266 266 263 264 263 266
223 227 231 235 241 243 244 246 249 251 254 253 255 255 257 258 257 255 255 256 254 253 255 252 256 250 253 258 259 253 247 244 246 246 245 252 250 254 252 248 246 249 248 249 254 259 258 262 263
225 231 234 237 242 245 245 246 250 251 256 260 258 256 255 256 258 257 256 254 255 251 253 253 251 249 245 250 250 243 242 248 245 244 247 242 243 247 249 236 237 239 242 247 247 249 252 256 259
233 236 240 243 248 251 251 254 259 257 256 255 260 260 259 259 257 258 257 256 252 252 251 254 253 252 248 243 253 251 248 250 246 253 258 250 246 244 248 250 244 232 239 243 239 245 247 249 255
241 243 247 251 251 256 257 252 251 255 256 260 258 260 262 262 260 259 259 260 263 263 261 260 259 254 251 250 250 249 252 251 247 247 241 242 248 245 241 248 251 254 253 263 246 238 242 247 250
238 241 245 249 250 252 252 252 249 256 254 252 254 255 257 259 260 261 261 263 263 264 264 263 260 261 261 258 257 254 251 252 257 261 267 263 255 268 238 243 248 251 255 254 257 263 247 242 247
241 243 238 242 256 243 253 252 253 256 255 256 259 261 261 261 261 261 262 261 260 261 261 260 259 260 261 262 261 260 259 257 255 255 257 259 264 270 267 262 259 260 252 255 262 267 265 268 259
236 242 243 248 252 261 256 257 258 258 259 259 259 261 262 264 264 264 262 264 264 263 263 260 258 258 256 258 259 261 260 261 260 259 259 257 262 264 262 260 261 263 265 265 264 256 263 263 263
242 244 248 250 255 256 259 263 264 265 266 264 263 265 263 259 258 258 258 257 258 260 263 263 261 258 259 259 261 260 261 262 261 259 255 257 260 257 256 256 257 258 261 260 258 264 266 261 262
243 246 250 253 259 265 268 265 268 270 272 270 267 265 264 262 261 262 264 265 264 262 260 262 262 261 259 255 254 255 256 257 258 257 258 258 256 250 259 261 261 262 263 264 260 258 265 270 277
248 255 251 258 263 267 267 271 273 279 276 276 276 269 267 266 267 267 264 262 265 267 265 263 262 261 259 257 254 253 254 257 260 262 259 258 259 256 257 256 255 256 255 255 257 258 267 271 274
250 255 263 265 267 269 267 275 277 274 272 269 263 272 271 270 268 268 270 269 267 267 266 262 262 258 257 255 253 252 252 251 252 253 252 254 254 254 254 251 252 257 255 250 256 257 262 263 269
253 259 261 266 271 272 283 276 273 263 252 272 284 278 276 275 276 277 277 275 273 270 267 266 264 260 254 251 251 251 251 249 243 249 250 253 249 249 248 245 253 254 255 255 251 254 259 266 271
256 261 268 274 275 284 274 251 267 279 283 288 285 283 287 286 285 285 284 282 281 279 274 270 263 255 250 249 246 247 247 247 241 242 245 244 246 245 246 251 249 245 252 249 250 250 256 265 269
265 267 264 266 263 255 242 268 285 291 295 292 292 293 293 294 292 291 288 285 281 276 271 262 259 256 250 251 248 244 243 243 241 236 238 238 234 242 238 243 253 249 246 251 251 247 251 260 267
265 269 266 273 275 277 286 292 297 295 294 299 301 300 301 298 299 295 286 282 274 272 270 265 265 263 256 249 245 242 240 241 238 237 236 241 244 242 243 249 242 246 252 254 255 252 255 264 265
266 263 270 275 276 275 272 264 288 256 274 283 286 297 300 303 308 301 284 278 274 266 272 268 261 260 256 251 246 241 234 234 237 239 240 250 237 239 243 242 237 252 253 255 256 258 259 261 264
269 263 268 269 272 278 285 277 266 280 288 283 293 292 297 299 304 306 289 279 276 278 269 271 265 258 256 258 249 246 239 233 232 236 234 237 239 238 233 250 251 250 250 253 255 256 257 256 256
268 264 268 273 277 281 286 292 290 292 289 293 295 294 293 297 297 306 298 290 283 273 277 271 273 262 258 257 249 249 245 235 229 237 229 227 268 252 250 248 247 249 254 256 258 259 259 257 256
Height
5857 5862 5865 5868 5873 5874 5878 5885 5887 5882 5885 5880 5887 5892 5893 5896 5894 5897 5898 5899 5900 5902 5902 5902 5902 5903 5903 5903 5904 5904 5903 5903 5904 5904 5904 5903 5902 5901 5901 5901 5900 5899 5900 5901 5901 5901 5902 5903 5902
5852 5858 5861 5862 5867 5871 5877 5883 5879 5880 5874 5882 5885 5888 5892 5890 5892 5894 5894 5896 5897 5899 5900 5900 5901 5902 5902 5903 5903 5904 5903 5903 5903 5902 5903 5903 5902 5901 5900 5900 5899 5899 5900 5900 5900 5901 5901 5901 5901
5848 5852 5855 5858 5862 5868 5875 5869 5876 5870 5876 5878 5882 5885 5882 5877 5888 5889 5892 5893 5895 5897 5897 5898 5899 5900 5901 5902 5902 5902 5902 5902 5902 5902 5901 5901 5900 5900 5901 5899 5899 5899 5900 5900 5901 5901 5900 5900 5900
5842 5846 5849 5852 5858 5866 5865 5865 5861 5868 5872 5875 5878 5880 5877 5880 5884 5886 5889 5890 5892 5895 5896 5897 5898 5898 5899 5900 5900 5901 5902 5901 5901 5900 5900 5900 5899 5898 5898 5898 5899 5899 5898 5899 5901 5901 5901 5901 5900
5834 5838 5841 5846 5853 5859 5855 5854 5857 5864 5866 5871 5875 5869 5866 5876 5879 5883 5885 5887 5888 5891 5893 5894 5896 5896 5897 5897 5898 5898 5899 5899 5900 5900 5899 5899 5898 5898 5897 5898 5898 5898 5898 5899 5899 5900 5899 5899 5899
5826 5832 5835 5841 5847 5849 5846 5851 5854 5858 5860 5865 5872 5867 5861 5871 5874 5877 5881 5883 5885 5886 5889 5891 5893 5895 5895 5895 5896 5896 5896 5897 5898 5898 5897 5897 5897 5896 5895 5895 5896 5897 5897 5897 5898 5897 5897 5896 5897
5818 5825 5830 5836 5842 5842 5842 5845 5849 5853 5855 5859 5857 5867 5858 5864 5869 5871 5874 5877 5880 5882 5884 5886 5889 5891 5892 5892 5892 5893 5894 5894 5894 5895 5895 5895 5895 5894 5894 5893 5893 5894 5894 5894 5895 5895 5896 5895 5894
5813 5818 5823 5828 5832 5838 5836 5837 5845 5844 5849 5845 5856 5862 5858 5858 5864 5867 5868 5870 5873 5876 5878 5880 5882 5884 5886 5888 5889 5889 5889 5890 5890 5891 5892 5892 5892 5892 5892 5892 5892 5892 5892 5892 5892 5893 5893 5892 5892
5805 5810 5815 5823 5828 5831 5827 5831 5837 5834 5839 5843 5849 5852 5850 5859 5859 5861 5863 5865 5866 5869 5870 5873 5875 5877 5879 5882 5883 5885 5886 5886 5886 5886 5888 5889 5889 5889 5890 5890 5890 5890 5890 5890 5891 5890 5890 5890 5889
5801 5804 5812 5819 5819 5818 5823 5825 5830 5825 5833 5838 5842 5846 5844 5849 5850 5854 5857 5859 5860 5861 5863 5864 5868 5870 5872 5874 5876 5879 5881 5881 5882 5882 5883 5884 5886 5886 5886 5887 5887 5887 5887 5887 5888 5888 5888 5888 5887
5797 5801 5806 5809 5808 5815 5818 5819 5823 5821 5825 5830 5832 5836 5835 5838 5844 5847 5849 5851 5852 5853 5855 5857 5861 5863 5865 5867 5870 5871 5873 5875 5876 5877 5879 5879 5880 5882 5882 5883 5883 5884 5883 5884 5884 5884 5884 5884 5883
5792 5797 5800 5803 5804 5808 5812 5813 5815 5815 5820 5821 5822 5826 5829 5830 5835 5838 5840 5842 5844 5845 5847 5850 5853 5856 5858 5860 5863 5864 5866 5868 5870 5871 5873 5873 5874 5876 5877 5878 5878 5878 5878 5878 5879 5879 5880 5880 5880
5788 5792 5795 5798 5799 5802 5804 5806 5808 5809 5809 5812 5817 5818 5820 5822 5825 5829 5833 5834 5836 5838 5839 5843 5844 5849 5851 5853 5856 5858 5859 5860 5861 5863 5864 5866 5868 5869 5870 5871 5871 5873 5872 5872 5872 5873 5874 5875 5875
5782 5786 5790 5792 5793 5795 5799 5801 5801 5804 5803 5806 5808 5810 5812 5814 5817 5820 5822 5826 5828 5829 5829 5834 5836 5838 5841 5844 5846 5849 5850 5852 5854 5854 5857 5857 5859 5861 5862 5860 5861 5864 5864 5866 5866 5867 5868 5868 5868
5779 5782 5785 5787 5789 5790 5792 5797 5796 5797 5796 5798 5801 5802 5803 5805 5808 5811 5813 5814 5814 5818 5822 5823 5827 5828 5832 5834 5836 5837 5839 5841 5846 5846 5847 5849 5850 5850 5852 5852 5852 5852 5853 5857 5858 5860 5861 5862 5862
5775 5778 5780 5782 5782 5784 5787 5791 5791 5788 5791 5792 5792 5792 5794 5796 5798 5800 5801 5804 5807 5810 5812 5816 5817 5818 5823 5826 5826 5828 5831 5832 5832 5835 5833 5837 5838 5838 5840 5842 5844 5844 5848 5848 5850 5850 5853 5854 5855
5770 5774 5775 5776 5777 5778 5780 5781 5782 5782 5786 5785 5785 5786 5787 5788 5790 5792 5794 5795 5796 5798 5802 5804 5805 5807 5809 5812 5814 5817 5819 5821 5823 5824 5822 5827 5829 5829 5828 5830 5836 5836 5838 5841 5842 5845 5843 5843 5847
5768 5768 5770 5771 5771 5772 5772 5774 5775 5776 5777 5779 5779 5780 5780 5781 5782 5782 5783 5784 5785 5786 5788 5790 5791 5793 5794 5797 5800 5802 5805 5808 5811 5814 5815 5816 5819 5818 5818 5822 5825 5828 5828 5831 5834 5837 5838 5838 5839
5758 5761 5763 5764 5764 5764 5765 5766 5768 5769 5771 5772 5772 5772 5774 5773 5772 5772 5772 5772 5772 5773 5775 5776 5778 5779 5781 5783 5785 5788 5792 5795 5798 5802 5804 5806 5810 5811 5813 5815 5816 5819 5821 5824 5824 5826 5827 5828 5831
5754 5755 5757 5757 5757 5757 5759 5760 5760 5761 5763 5763 5764 5765 5764 5764 5763 5762 5761 5761 5761 5762 5761 5762 5765 5767 5768 5771 5772 5776 5779 5780 5784 5789 5792 5795 5798 5801 5802 5805 5806 5808 5810 5813 5814 5820 5819 5819 5820
5747 5749 5750 5751 5750 5750 5753 5752 5752 5754 5754 5753 5755 5755 5753 5751 5751 5751 5750 5749 5747 5748 5749 5749 5748 5751 5754 5757 5757 5761 5763 5766 5768 5775 5779 5785 5787 5788 5791 5793 5794 5797 5800 5803 5805 5808 5810 5809 5813
5741 5741 5741 5744 5744 5744 5744 5743 5746 5746 5744 5744 5743 5739 5737 5740 5739 5738 5736 5732 5731 5733 5734 5735 5738 5737 5739 5741 5743 5745 5749 5752 5758 5761 5765 5771 5773 5776 5779 5781 5783 5786 5789 5792 5794 5798 5801 5800 5800
5735 5732 5735 5736 5736 5736 5739 5736 5737 5738 5737 5733 5726 5730 5730 5728 5724 5722 5722 5722 5721 5720 5717 5718 5722 5724 5723 5723 5726 5730 5734 5740 5744 5745 5750 5754 5758 5762 5764 5767 5771 5774 5777 5781 5783 5788 5789 5791 5792
5727 5728 5729 5729 5730 5728 5730 5729 5732 5731 5721 5714 5719 5717 5715 5713 5710 5708 5705 5702 5701 5700 5699 5701 5704 5705 5707 5707 5709 5712 5717 5724 5727 5732 5736 5739 5743 5749 5750 5754 5759 5763 5765 5767 5772 5775 5777 5779 5783
5721 5722 5722 5724 5726 5724 5725 5717 5719 5715 5706 5706 5704 5702 5699 5696 5695 5691 5685 5682 5677 5675 5675 5677 5678 5684 5685 5686 5691 5695 5702 5707 5714 5720 5722 5727 5728 5730 5739 5741 5745 5748 5754 5755 5759 5762 5765 5768 5770
5714 5714 5716 5713 5716 5718 5714 5710 5713 5698 5695 5690 5688 5685 5684 5680 5675 5670 5665 5661 5659 5655 5654 5656 5656 5660 5664 5666 5671 5678 5685 5691 5697 5704 5708 5709 5704 5712 5720 5727 5731 5734 5739 5744 5747 5750 5753 5756 5759
5706 5704 5704 5703 5702 5700 5703 5703 5701 5693 5685 5680 5674 5670 5667 5664 5660 5655 5652 5648 5646 5644 5641 5642 5644 5646 5648 5651 5655 5660 5668 5675 5681 5689 5695 5695 5699 5703 5681 5710 5716 5720 5725 5730 5733 5737 5741 5744 5749
5697 5696 5696 5696 5692 5693 5698 5696 5696 5687 5679 5674 5668 5663 5658 5654 5650 5644 5641 5637 5635 5635 5633 5632 5634 5636 5637 5639 5643 5646 5651 5659 5668 5674 5680 5686 5631 5674 5681 5677 5686 5704 5712 5717 5720 5724 5728 5732 5736
5686 5688 5686 5686 5685 5683 5685 5689 5680 5673 5670 5665 5663 5657 5653 5648 5644 5637 5632 5630 5628 5625 5624 5623 5623 5624 5625 5628 5631 5635 5640 5646 5654 5659 5662 5660 5634 5652 5667 5663 5677 5694 5700 5705 5708 5712 5715 5720 5723
5679 5679 5679 5676 5678 5676 5673 5674 5669 5664 5661 5658 5654 5650 5645 5642 5637 5631 5625 5621 5618 5616 5614 5613 5612 5613 5613 5615 5619 5621 5626 5633 5640 5638 5612 5615 5624 5650 5660 5670 5677 5683 5688 5693 5697 5701 5705 5708 5711